Showing default

GAOFEN 1-02, 43259

Orbit data source: Space-Track

GAOFEN 1-02, 43259 is a payload satellite owned by GGKGJ (CN) in SSO that was launched on Sat, 31 Mar 2018 UTC via a CHANG ZHENG 4C launch vehicle from the Taiyaun Space Center, China (TSC). Payload-class satellites include a variety of spacecraft equipped with specific instruments for various scientific and technological missions. These include communications satellites like Starlink; space stations such as the ISS; scientific satellites like the Hubble; Earth observation satellites from companies like Planet Labs, Umbra, and HawkEye 360; GPS; miniature CubeSats for education and research; and military/defense satellites.

Loading next visibility...
Identifier
43259, 2018-031A
Orbit
SSO
Country
Flag of CNCN / PRC
Related business
Manufacturer
DFH
Mission
Operational Civil Imaging
Bus & Motor
CAST-2000, AOCS
Mass
805 kg wet, ~700 kg dry
Launch date (UTC)
2018-03-31 (8 years ago)
Launch vehicle
CHANG ZHENG 4C
Launch site
Taiyaun Space Center, China (TSC)
Object type
Payload
Rocket body
Debris
Shape & HBR
Box + 2 Pan, 2.0 m
Radar Cross Section
4.991 m², Large (>1 m²)

Expand to show TLE details & history
Last TLE update: 6 hours ago

TLE from 6 hours ago
0 GAOFEN 1-02
1 43259U 18031A   26126.95843100  .00000854  00000-0  13011-3 0  9999
2 43259  98.0545 189.5939 0004095 124.6160 235.5436 14.76462894436617
Epoch: 2026-05-06T23:00Z
TLE epoch observation values (Epoch: 2026-05-06T23:00:08.438Z)
Latitude
-0.00004°
Longitude
-20.25271°
Altitude
645.151 km
Speed
7.534 km/s
True Right ascension
12h 38m 22s
True Declination
0° 00' 00"
Sunlit
Object was in full shadow at epoch
Visualization orbit readout
Latitude
Unknown
Longitude
Unknown
Altitude
Unknown
Speed
Unknown
Apparent Right ascension
Unknown
Apparent Declination
Unknown
Sunlit
N/A
Visualization observer readout
Local Sidereal Time
13:29:52
Azimuth
Unknown
Elevation
Unknown
Doppler factor
Unknown
Orbital elements
Apogee altitude
640.437 km
Perigee altitude
634.691 km
Semi-major axis
7,015.701 km
Eccentricity
0.00041
Inclination
98.0545°
RAAN
189.5939°
Arg. of periapsis
124.616°
True anomaly
235.50492°
Mean anomaly
235.5436°
Eccentric anomaly
235.52426°
Mean motion
3.69349 °/min
Orbital period
97.47 mins
BSTAR
0.00013011
Loading maneuver chart data...
Computing Atmospheric mass density...
Loading historical data...
Loading historical data...
Loading historical data...
Loading historical data...
Loading historical data...
Loading historical data...
Loading historical data...

Documentation

Showing up to 5 results
|